This is the latest recevied weather packets stored in our database for station/object IW2NTF-3. If no packets are shown the sender has not sent any weather packets the latest 10 day(s).
| Time | Temp. | Humidity | Pressure | Rain* | Wind** | Luminosity | Snow |
|---|---|---|---|---|---|---|---|
| 1787851023 | 29.44° C | 65% | 1016.5 hPa | 0 mm | - | 40 W/m² | - |
| 1787850963 | 29.44° C | 66% | 1016.5 hPa | 0 mm | - | 42 W/m² | - |
| 1787850903 | 29.44° C | 66% | 1016.5 hPa | 0 mm | - | 42 W/m² | - |
| 1787850843 | 29.44° C | 65% | 1016.7 hPa | 0 mm | - | 44 W/m² | - |
| 1787850783 | 29.44° C | 65% | 1016.7 hPa | 0 mm | - | 44 W/m² | - |
| 1787850724 | 29.44° C | 66% | 1016.8 hPa | 0 mm | - | 44 W/m² | - |
| 1787850664 | 29.44° C | 66% | 1016.8 hPa | 0 mm | - | 42 W/m² | - |
| 1787850603 | 29.44° C | 66% | 1016.8 hPa | 0 mm | - | 42 W/m² | - |
| 1787850544 | 29.44° C | 66% | 1016.7 hPa | 0 mm | - | 40 W/m² | - |
| 1787850484 | 29.44° C | 66% | 1016.7 hPa | 0 mm | - | 40 W/m² | - |
| 1787850424 | 29.44° C | 67% | 1016.8 hPa | 0 mm | - | 40 W/m² | - |
| 1787850364 | 28.89° C | 67% | 1016.8 hPa | 0 mm | - | 37 W/m² | - |
| 1787850303 | 28.89° C | 67% | 1016.8 hPa | 0 mm | - | 32 W/m² | - |
| 1787850244 | 28.89° C | 67% | 1016.8 hPa | 0 mm | - | 30 W/m² | - |
| 1787850184 | 28.89° C | 67% | 1016.9 hPa | 0 mm | - | 26 W/m² | - |
| 1787850123 | 28.89° C | 67% | 1016.9 hPa | 0 mm | - | 23 W/m² | - |
| 1787850063 | 28.89° C | 67% | 1016.9 hPa | 0 mm | - | 21 W/m² | - |
| 1787850004 | 28.89° C | 67% | 1016.9 hPa | 0 mm | - | 19 W/m² | - |
| 1787849943 | 28.89° C | 67% | 1016.9 hPa | 0 mm | - | 18 W/m² | - |
| 1787849884 | 28.89° C | 67% | 1016.8 hPa | 0 mm | - | 18 W/m² | - |
| 1787849823 | 29.44° C | 66% | 1016.8 hPa | 0 mm | - | 18 W/m² | - |
| 1787849763 | 29.44° C | 66% | 1016.8 hPa | 0 mm | - | 18 W/m² | - |
| 1787849703 | 29.44° C | 66% | 1016.8 hPa | 0 mm | - | 18 W/m² | - |
| 1787849643 | 29.44° C | 66% | 1016.8 hPa | 0 mm | - | 19 W/m² | - |
| 1787849583 | 29.44° C | 65% | 1016.6 hPa | 0 mm | - | 25 W/m² | - |
* Rain latest hour (hover to see other rain measurements)
** Current wind speed in m/s (hover to see current wind gust speed)